Tracking 17921 objects as of 16-January-2017
HD Live streaming from Space Station
objects crossing your sky now

DMSP 5D-2 F11 DEB

Track DMSP 5D-2 F11 DEB now!
10-day predictions


NORAD ID: 29070
Int'l Code: 1991-082BR
Perigee: 784.5 km
Apogee: 804.5 km
Inclination: 98.8 °
Period: 100.6 minutes
Semi major axis: 7165 km
RCS: 0.0089 m2 (small)
Launch date: November 28, 1991
Source: United States (US)
Launch site: AIR FORCE WESTERN TEST RANGE (AFWTR)

Note: This is SATELLITE DEBRIS
Your satellite tracking list
Your tracking list is empty





NASA's NSSDC Master Catalog

Two Line Element Set (TLE):
1 29070U 91082BR  17015.49447858  .00000836  00000-0  33257-3 0  9991
2 29070  98.7888  34.6628 0013969 239.1183 120.8627 14.31311199643846
Source of the keplerian elements: AFSPC